Location: Ariel
(45.9570°N, 122.5700°W)
Time: 02:59:40
(UTC-07:00)

Altair - Pass Details

Date: 20 July 2019
Orbit: 1501 x 1683 km, 47.2° (Epoch: 25 August)

Event Time Altitude Azimuth Distance (km) Brightness Sun altitude
Rises 15:49:16 0° 268° (W) 4,633 10.6 49.9°
Reaches altitude 10° 15:52:17 10° 269° (W) 3,652 10.3 49.4°
Maximum altitude 16:01:29 83° 358° (N) 1,531 8.4 47.9°
Drops below altitude 10° 16:10:55 10° 88° (E) 3,732 9.2 46.4°
Sets 16:14:02 0° 89° (E) 4,738 9.7 45.9°
